Tehachapi, CA

1:16 PM PST on December 09, 2019 (GMT -0800)
Tehachapi Municipal

Weather History for KTSP - October, 2019

Change the Weather History Date:

Thursday, October 17, 2019

  Actual Average Record
Temperature  
Mean Temperature 50 °F -  
Max Temperature 55 °F 70 °F 82 °F (2017)
Min Temperature 44 °F 41 °F 32 °F (2018)
Degree Days  
Heating Degree Days 16    
Moisture  
Dew Point 38 °F    
Average Humidity 59    
Maximum Humidity 71    
Minimum Humidity 38    
Precipitation  
Precipitation 0.00 in - - ()
Sea Level Pressure  
Sea Level Pressure 29.93 in    
Wind  
Wind Speed 11 mph ()    
Max Wind Speed 25 mph    
Max Gust Speed 37 mph    
Visibility 7.8 miles    
Events      
Averages and records for this station are not official NWS values.
T = Trace of Precipitation, MM = Missing Value Source: Averaged Metar Reports

Daily Weather History Graph

Daily Weather History Graph

Search for Another Location

Airport or City:

Astronomy

Oct. 17, 2019 Rise Set
Actual Time 7:01 AM PDT 6:16 PM PDT
Civil Twilight 6:35 AM PDT 6:41 PM PDT
Nautical Twilight 6:06 AM PDT 7:11 PM PDT
Astronomical Twilight 5:36 AM PDT 7:40 PM PDT
Moon 8:58 PM PDT (10/17) 10:31 AM PDT (10/17)
Length of Visible Light 12h 06m
Length of Day
11h 14m
Waning Gibbous, 86% of the Moon is Illuminated
Oct 17
Waning Gibbous
Oct 21
Last Quarter
Oct 27
New
Nov 4
First Quarter
Nov 12
Full

Hourly Weather History & Observations

Time (PDT) Temp. Windchill Dew Point Humidity Pressure Visibility Wind Dir Wind Speed Gust Speed Precip Events Conditions
12:15 AM 55.4 °F - 30.2 °F 38% 29.97 in 10.0 mi NW 3.5 mph - N/A   Clear
12:55 AM 53.6 °F - 30.2 °F 41% 29.95 in 10.0 mi Calm Calm - N/A   Clear
1:15 AM 53.6 °F - 30.2 °F 41% 29.95 in 10.0 mi Calm Calm - N/A   Clear
1:55 AM 53.6 °F - 32.0 °F 44% 29.94 in 10.0 mi West 5.8 mph - N/A   Clear
2:15 AM 53.6 °F - 32.0 °F 44% 29.94 in 10.0 mi West 10.4 mph - N/A   Clear
2:35 AM 53.6 °F - 32.0 °F 44% 29.94 in 9.0 mi West 9.2 mph - N/A   Clear
2:55 AM 53.6 °F - 32.0 °F 44% 29.93 in 9.0 mi West 9.2 mph - N/A   Clear
3:15 AM 53.6 °F - 32.0 °F 44% 29.92 in 10.0 mi WSW 5.8 mph - N/A   Clear
3:55 AM 50.0 °F - 32.0 °F 50% 29.91 in 9.0 mi WNW 3.5 mph - N/A   Clear
4:15 AM 53.6 °F - 32.0 °F 44% 29.92 in 7.0 mi WNW 11.5 mph - N/A   Clear
4:35 AM 51.8 °F - 32.0 °F 47% 29.93 in 8.0 mi West 10.4 mph - N/A   Clear
4:55 AM 51.8 °F - 32.0 °F 47% 29.93 in 7.0 mi WSW 9.2 mph - N/A   Clear
5:15 AM 51.8 °F - 33.8 °F 50% 29.94 in 7.0 mi West 12.7 mph 18.4 mph N/A   Clear
5:35 AM 51.8 °F - 37.4 °F 58% 29.94 in 6.0 mi West 15.0 mph 21.9 mph N/A   Haze
5:55 AM 50.0 °F - 37.4 °F 62% 29.94 in 5.0 mi West 13.8 mph 19.6 mph N/A   Haze
6:15 AM 50.0 °F - 39.2 °F 66% 29.94 in 5.0 mi West 13.8 mph - N/A   Haze
6:35 AM 48.2 °F - 37.4 °F 66% 29.94 in 5.0 mi WNW 6.9 mph - N/A   Haze
6:55 AM 44.6 °F 41.4 °F 33.8 °F 66% 29.93 in 7.0 mi NW 5.8 mph - N/A   Clear
7:15 AM 44.6 °F 42.2 °F 33.8 °F 66% 29.93 in 5.0 mi NW 4.6 mph - N/A   Haze
7:35 AM 46.4 °F 42.9 °F 37.4 °F 71% 29.92 in 4.0 mi West 6.9 mph - N/A   Haze
7:55 AM 48.2 °F - 37.4 °F 66% 29.92 in 4.0 mi West 12.7 mph - N/A   Haze
8:35 AM 53.6 °F - 37.4 °F 54% 29.92 in 4.0 mi WNW 10.4 mph 16.1 mph N/A   Haze
8:55 AM 53.6 °F - 37.4 °F 54% 29.92 in 5.0 mi WNW 12.7 mph 16.1 mph N/A   Haze
9:15 AM 55.4 °F - 37.4 °F 51% 29.92 in 5.0 mi WNW 11.5 mph - N/A   Haze
9:35 AM 55.4 °F - 37.4 °F 51% 29.94 in 5.0 mi NW 17.3 mph 23.0 mph N/A   Haze
9:55 AM 51.8 °F - 39.2 °F 62% 29.95 in 5.0 mi NW 16.1 mph - N/A   Haze
10:15 AM 51.8 °F - 39.2 °F 62% 29.95 in 6.0 mi West 21.9 mph 31.1 mph N/A   Haze
10:35 AM 51.8 °F - 41.0 °F 67% 29.95 in 7.0 mi West 20.7 mph 28.8 mph N/A   Scattered Clouds
10:55 AM 51.8 °F - 41.0 °F 67% 29.95 in 6.0 mi West 23.0 mph 29.9 mph N/A   Haze
11:35 AM 55.4 °F - 41.0 °F 58% 29.95 in 7.0 mi West 21.9 mph 31.1 mph N/A   Mostly Cloudy
11:55 AM 55.4 °F - 41.0 °F 58% 29.95 in 9.0 mi West 17.3 mph 23.0 mph N/A   Overcast
12:15 PM 53.6 °F - 41.0 °F 62% 29.94 in 8.0 mi WNW 16.1 mph 21.9 mph N/A   Overcast
12:35 PM 53.6 °F - 41.0 °F 62% 29.94 in 8.0 mi WNW 17.3 mph 24.2 mph N/A   Overcast
12:55 PM 53.6 °F - 42.8 °F 67% 29.93 in 9.0 mi West 16.1 mph 20.7 mph N/A   Overcast
1:15 PM 53.6 °F - 42.8 °F 67% 29.92 in 9.0 mi NW 17.3 mph 25.3 mph N/A   Overcast
1:35 PM 53.6 °F - 42.8 °F 67% 29.91 in 9.0 mi NW 17.3 mph 23.0 mph N/A   Overcast
1:55 PM 53.6 °F - 42.8 °F 67% 29.90 in 9.0 mi WNW 20.7 mph 27.6 mph N/A   Mostly Cloudy
2:15 PM 55.4 °F - 41.0 °F 58% 29.90 in 9.0 mi WNW 23.0 mph 32.2 mph N/A   Scattered Clouds
2:35 PM 53.6 °F - 41.0 °F 62% 29.90 in 8.0 mi WNW 25.3 mph 31.1 mph N/A   Scattered Clouds
2:55 PM 53.6 °F - 41.0 °F 62% 29.90 in 9.0 mi WNW 25.3 mph 35.7 mph N/A   Partly Cloudy
3:15 PM 55.4 °F - 41.0 °F 58% 29.90 in 8.0 mi WNW 20.7 mph 33.4 mph N/A   Partly Cloudy
3:35 PM 55.4 °F - 41.0 °F 58% 29.89 in 9.0 mi WNW 20.7 mph 28.8 mph N/A   Mostly Cloudy
3:55 PM 55.4 °F - 41.0 °F 58% 29.89 in 10.0 mi West 19.6 mph 32.2 mph N/A   Overcast
4:15 PM 55.4 °F - 41.0 °F 58% 29.89 in 9.0 mi WNW 18.4 mph 33.4 mph N/A   Overcast
4:35 PM 55.4 °F - 39.2 °F 54% 29.89 in 8.0 mi WNW 21.9 mph 34.5 mph N/A   Mostly Cloudy
4:55 PM 53.6 °F - 42.8 °F 67% 29.89 in 8.0 mi NW 17.3 mph 26.5 mph N/A   Scattered Clouds
5:15 PM 53.6 °F - 42.8 °F 67% 29.89 in 10.0 mi WNW 18.4 mph 29.9 mph N/A   Mostly Cloudy
5:35 PM 53.6 °F - 41.0 °F 62% 29.89 in 10.0 mi WNW 20.7 mph 31.1 mph N/A   Mostly Cloudy
6:15 PM 53.6 °F - 39.2 °F 58% 29.89 in 8.0 mi WNW 18.4 mph 36.8 mph N/A   Mostly Cloudy
6:35 PM 51.8 °F - 39.2 °F 62% 29.90 in 10.0 mi WNW 25.3 mph 32.2 mph N/A   Mostly Cloudy
6:55 PM 51.8 °F - 39.2 °F 62% 29.91 in 9.0 mi WNW 19.6 mph 31.1 mph N/A   Overcast
7:15 PM 51.8 °F - 39.2 °F 62% 29.92 in 9.0 mi WNW 17.3 mph 27.6 mph N/A   Overcast
7:35 PM 50.0 °F - 39.2 °F 66% 29.92 in 7.0 mi WNW 20.7 mph 28.8 mph N/A   Overcast
7:55 PM 50.0 °F - 37.4 °F 62% 29.92 in 6.0 mi WNW 23.0 mph 31.1 mph N/A   Haze
8:15 PM 50.0 °F - 35.6 °F 58% 29.92 in 6.0 mi WNW 23.0 mph 34.5 mph N/A   Haze
8:35 PM 48.2 °F - 35.6 °F 62% 29.92 in 6.0 mi WNW 19.6 mph 31.1 mph N/A   Haze
8:55 PM 48.2 °F - 35.6 °F 62% 29.93 in 7.0 mi WNW 24.2 mph 31.1 mph N/A   Partly Cloudy
9:15 PM 48.2 °F - 37.4 °F 66% 29.92 in 7.0 mi West 23.0 mph 33.4 mph N/A   Scattered Clouds
9:35 PM 48.2 °F - 37.4 °F 66% 29.93 in 7.0 mi West 20.7 mph 27.6 mph N/A   Mostly Cloudy
9:55 PM 48.2 °F - 37.4 °F 66% 29.96 in 8.0 mi WNW 12.7 mph 23.0 mph N/A   Overcast
10:15 PM 48.2 °F - 37.4 °F 66% 29.97 in 9.0 mi West 18.4 mph 24.2 mph N/A   Overcast
10:35 PM 48.2 °F - 37.4 °F 66% 29.98 in 10.0 mi West 12.7 mph 21.9 mph N/A   Overcast
10:55 PM 48.2 °F - 37.4 °F 66% 29.99 in 9.0 mi WSW 10.4 mph - N/A   Overcast
11:15 PM 48.2 °F - 37.4 °F 66% 29.99 in 9.0 mi West 9.2 mph - N/A   Overcast
11:35 PM 46.4 °F 40.7 °F 37.4 °F 71% 29.99 in 9.0 mi West 12.7 mph 18.4 mph N/A   Overcast
11:55 PM 46.4 °F 41.1 °F 37.4 °F 71% 30.00 in 10.0 mi WNW 11.5 mph - N/A   Overcast